HK6RM-20 Weather Reports


time (UTC)temp
C
wind
direction
speed
KPH
gust
KPH
rain 1hr
cm
rain 24hr
cm
rain mn
cm
humidity
%
barometer
mb
20260901005541 20 99 1.6 1.6 0.00 0.00 0.00 57 1014.0
20260901004240 21 99 1.6 1.6 0.00 0.00 0.00 57 1014.0
20260901002940 21 99 1.6 1.6 0.00 0.00 0.00 57 1013.0
20260901001639 22 99 1.6 1.6 0.00 0.00 0.00 57 1013.0
20260901000339 22 99 1.6 1.6 0.00 0.00 0.00 57 1013.0
20260831235038 23 99 1.6 1.6 0.00 0.00 0.00 57 1013.0
20260831233738 23 99 1.6 3.2 0.00 0.00 0.00 57 1013.0
20260831232437 24 123 0.0 1.6 0.00 0.00 0.00 57 1012.0
20260831231137 25 123 0.0 1.6 0.00 0.00 0.00 57 1011.0
20260831225836 25 123 0.0 1.6 0.00 0.00 0.00 57 1011.0
20260831224536 26 123 0.0 1.6 0.00 0.00 0.00 57 1011.0
20260831223235 26 123 0.0 1.6 0.00 0.00 0.00 57 1011.0
20260831221935 27 140 0.0 0.0 0.00 0.00 0.00 57 1010.0
20260831220634 27 140 0.0 0.0 0.00 0.00 0.00 57 1010.0
20260831215334 28 140 0.0 0.0 0.00 0.00 0.00 57 1010.0
20260831214033 28 140 0.0 0.0 0.00 0.00 0.00 57 1010.0
20260831212733 29 230 0.0 1.6 0.00 0.00 0.00 57 1010.0
20260831211432 25 292 1.6 1.6 0.00 0.00 0.00 62 1010.0
20260831210132 25 292 1.6 1.6 0.00 0.00 0.00 62 1010.0
20260831204831 26 292 1.6 1.6 0.00 0.00 0.00 62 1010.0
20260831203531 26 292 1.6 1.6 0.00 0.00 0.00 62 1010.0
20260831202230 27 292 1.6 1.6 0.00 0.00 0.00 62 1010.0
20260831200930 27 292 1.6 1.6 0.00 0.00 0.00 62 1010.0
20260831195629 28 292 1.6 1.6 0.00 0.00 0.00 62 1010.0
20260831194329 28 292 1.6 1.6 0.00 0.00 0.00 62 1010.0
20260831193028 29 292 1.6 1.6 0.00 0.00 0.00 62 1010.0
20260831191728 30 292 1.6 1.6 0.00 0.00 0.00 62 1011.0
20260831190427 25 288 1.6 1.6 0.00 0.00 0.00 68 1011.0
20260831185127 25 288 1.6 1.6 0.00 0.00 0.00 68 1011.0
20260831183826 26 288 1.6 1.6 0.00 0.00 0.00 68 1011.0
20260831182526 26 288 1.6 1.6 0.00 0.00 0.00 68 1012.0
20260831181225 27 288 3.2 3.2 0.00 0.00 0.00 68 1012.0
20260831175925 24 286 1.6 1.6 0.00 0.00 0.00 69 1012.0
20260831174624 25 286 1.6 1.6 0.00 0.00 0.00 69 1012.0
20260831173324 25 286 1.6 1.6 0.00 0.00 0.00 69 1012.0
20260831172023 26 286 1.6 1.6 0.00 0.00 0.00 69 1013.0
20260831170723 26 286 1.6 1.6 0.00 0.00 0.00 69 1013.0
20260831165423 23 300 1.6 1.6 0.00 0.00 0.00 79 1013.0
20260831164122 24 300 1.6 1.6 0.00 0.00 0.00 79 1014.0
20260831162822 25 300 1.6 1.6 0.00 0.00 0.00 79 1014.0
20260831162147 25 300 1.6 1.6 0.00 0.00 0.00 79 1014.0
20260831160847 23 300 1.6 1.6 0.00 0.00 0.00 80 1014.0
20260831155546 24 300 1.6 1.6 0.00 0.00 0.00 80 1014.0
20260831154246 23 280 1.6 1.6 0.00 0.00 0.00 81 1014.0
20260831152945 24 280 1.6 1.6 0.00 0.00 0.00 81 1015.0
20260831151645 25 280 1.6 1.6 0.00 0.00 0.00 81 1015.0
20260831150344 23 280 1.6 1.6 0.00 0.00 0.00 82 1015.0
20260831145044 23 280 1.6 1.6 0.00 0.00 0.00 82 1015.0
20260831143743 24 280 1.6 1.6 0.00 0.00 0.00 82 1015.0
20260831142443 22 290 1.6 0.0 0.00 0.00 0.00 89 1015.0
20260831141142 22 290 1.6 0.0 0.00 0.00 0.00 89 1015.0
20260831135842 23 290 1.6 0.0 0.00 0.00 0.00 89 1015.0
20260831134541 23 290 1.6 0.0 0.00 0.00 0.00 89 1015.0
20260831133241 21 290 1.6 0.0 0.00 0.00 0.00 93 1015.0
20260831131940 21 261 0.0 0.0 0.00 0.00 0.00 93 1015.0
20260831130640 22 261 0.0 0.0 0.00 0.00 0.00 93 1015.0
20260831125339 22 261 0.0 0.0 0.00 0.00 0.00 93 1015.0
20260831124039 19 261 0.0 0.0 0.00 0.00 0.00 93 1015.0
20260831122738 20 79 0.0 1.6 0.00 0.00 0.00 93 1015.0
20260831121438 20 79 0.0 1.6 0.00 0.00 0.00 93 1015.0
20260831120137 21 79 0.0 1.6 0.00 0.00 0.00 93 1015.0
20260831114837 21 79 0.0 1.6 0.00 0.00 0.00 93 1015.0
20260831113536 17 82 1.6 1.6 0.00 0.00 0.00 93 1015.0
20260831112236 18 82 1.6 1.6 0.00 0.00 0.00 93 1016.0
20260831110935 18 82 1.6 1.6 0.00 0.00 0.00 93 1016.0
20260831105635 19 82 1.6 1.6 0.00 0.00 0.00 93 1015.0
20260831104335 20 82 1.6 1.6 0.00 0.00 0.00 93 1015.0
20260831103034 20 82 1.6 1.6 0.00 0.00 0.00 93 1015.0
20260831101733 21 82 1.6 1.6 0.00 0.00 0.00 93 1015.0
20260831100433 17 85 1.6 1.6 0.00 0.00 0.00 94 1015.0
20260831095133 18 85 1.6 1.6 0.00 0.00 0.00 94 1015.0
20260831093832 18 85 1.6 1.6 0.00 0.00 0.00 94 1015.0
20260831092531 19 85 1.6 1.6 0.00 0.00 0.00 94 1014.0
20260831091231 20 85 1.6 1.6 0.00 0.00 0.00 94 1014.0
20260831085931 20 85 1.6 1.6 0.00 0.00 0.00 94 1014.0
20260831084630 18 86 1.6 1.6 0.00 0.00 0.00 93 1014.0
20260831083330 18 86 1.6 1.6 0.00 0.00 0.00 93 1014.0
20260831082029 19 86 1.6 1.6 0.00 0.00 0.00 93 1014.0
20260831080728 20 86 1.6 1.6 0.00 0.00 0.00 93 1014.0
20260831075428 20 86 1.6 1.6 0.00 0.00 0.00 93 1014.0
20260831074128 21 86 1.6 1.6 0.00 0.00 0.00 93 1014.0
20260831072827 18 92 1.6 1.6 0.00 0.00 0.00 89 1014.0
20260831071527 18 92 1.6 1.6 0.00 0.00 0.00 89 1014.0
20260831070226 19 92 1.6 1.6 0.00 0.00 0.00 89 1014.0
20260831064925 20 92 1.6 1.6 0.00 0.00 0.00 89 1014.0
20260831063625 20 92 1.6 1.6 0.00 0.00 0.00 89 1014.0
20260831062325 21 92 1.6 1.6 0.00 0.00 0.00 89 1015.0
20260831061024 18 103 1.6 1.6 0.00 0.00 0.00 88 1015.0
20260831055724 19 103 1.6 1.6 0.00 0.00 0.00 88 1015.0
20260831054423 20 103 1.6 1.6 0.00 0.00 0.00 88 1015.0
20260831053123 20 103 1.6 1.6 0.00 0.00 0.00 88 1015.0
20260831051823 21 103 1.6 1.6 0.00 0.00 0.00 88 1015.0
20260831050719 21 103 1.6 1.6 0.00 0.00 0.00 88 1015.0
20260831045419 22 103 1.6 1.6 0.00 0.00 0.00 88 1015.0
20260831042600 19 102 1.6 1.6 0.08 0.00 0.00 74 1015.0
20260831041300 20 102 1.6 1.6 0.05 0.00 0.00 74 1015.0
20260831035959 20 102 1.6 1.6 0.08 0.00 0.00 74 1015.0
20260831034659 21 102 1.6 1.6 0.03 0.00 0.00 74 1015.0
20260831033358 21 102 1.6 1.6 0.03 0.00 0.00 74 1015.0
20260831032058 22 102 1.6 1.6 0.00 0.00 0.00 74 1015.0
20260831030757 22 102 3.2 1.6 0.00 0.00 0.00 74 1015.0
20260831025457 19 102 1.6 1.6 0.00 0.00 0.00 70 1015.0
20260831024156 20 102 3.2 1.6 0.00 0.00 0.00 70 1015.0
20260831022856 20 112 0.0 1.6 0.00 0.00 0.00 70 1014.0
20260831021556 21 112 0.0 1.6 0.00 0.00 0.00 70 1014.0
20260831020255 21 112 0.0 1.6 0.00 0.00 0.00 70 1014.0
20260831014954 22 112 0.0 1.6 0.00 0.00 0.00 70 1014.0
20260831013654 22 112 0.0 1.6 0.00 0.00 0.00 70 1014.0
20260831012353 23 106 0.0 1.6 0.00 0.00 0.00 70 1013.0
20260831011053 20 154 1.6 8.0 0.00 0.00 0.00 62 1013.0